Flag Weather past 2 weeks in Sagamihara, Japan

Now
47 °F

Passing clouds.


Feels Like: 45 °F
Forecast: 48 / 64 °F
Wind: 5 mph from North

Location: Yokota Ab

Current Time: Nov 27, 2014 at 7:12:13 AM

Latest Report: Nov 27, 2014 at 5:58 AM


Visibility: 10 mi

Pressure: 30.11 "Hg

Humidity: 98%

Dew point: 47 °F

Location of SagamiharaLocation

Historic Weather in Sagamihara — Graph

°F

Sagamihara temperature yesterday

Maximum temperature yesterday: 50 °F (at 2:58 PM)
Minimum temperature yesterday: 46 °F (at 6:01 AM)
Average temperature yesterday: 49 °F

Past Weeks' High & Low Weather Summary

 TemperatureHumidityPressure
High68 °F (Nov 13, 1:58 PM)100% (Nov 12, 10:58 PM)30.41 "Hg (Nov 12, 10:58 PM)
Low37 °F (Nov 20, 2:58 AM)18% (Nov 13, 3:58 PM)29.65 "Hg (Nov 13, 12:04 AM)
Average50 °F71%30.13 "Hg
* Reported Nov 12 5:58 AM — Nov 27 5:58 AM, Sagamihara, Weather by CustomWeather, © 2014

Note: Actual official high and low records may vary slightly from our data, if they occured in-between our weather recording intervals... More about our weather records

Advertising

Sagamihara weather history for previous 24 hours

 ConditionsComfort  
Time TempWeatherWind HumidityBarometerVisibility
5:58 AM
Nov 27
47 °FPassing clouds.5 mph98%30.11 "Hg10 mi
5:00 AM48 °FLow clouds.3 mph100%30.07 "Hg10 mi
4:58 AM48 °FOvercast.3 mph100%30.08 "Hg10 mi
3:58 AM48 °FLow clouds.6 mph100%30.06 "Hg10 mi
3:03 AM50 °FMostly cloudy.5 mph100%30.02 "Hg7 mi
3:01 AM50 °FMostly cloudy.5 mph100%30.02 "Hg9 mi
1:58 AM50 °FLight rain. Passing clouds.1 mph100%30.03 "Hg10 mi
1:02 AM50 °FLight rain. Mostly cloudy.5 mph100%30.01 "Hg10 mi
12:04 AM50 °FLight rain. Overcast.6 mph100%30.00 "Hg7 mi
12:02 AM50 °FLight rain. Overcast.6 mph100%30.00 "Hg7 mi
11:04 PM
Nov 26
50 °FLight rain. Mostly cloudy.7 mph100%30.00 "Hg7 mi
10:58 PM50 °FLight rain. Overcast.8 mph99%30.02 "Hg8 mi
9:58 PM50 °FLight rain. Overcast.14 mph97%30.02 "Hg10 mi
8:58 PM50 °FDrizzle. Overcast.10 mph97%30.02 "Hg8 mi
8:04 PM50 °FDrizzle. Overcast.8 mph100%30.00 "Hg10 mi
7:58 PM50 °FDrizzle. Mostly cloudy.9 mph97%29.99 "Hg10 mi
7:00 PM50 °FDrizzle. Overcast.12 mph100%29.99 "Hg10 mi
5:59 PM50 °FLow clouds.12 mph100%29.97 "Hg10 mi
5:58 PM50 °FDrizzle. Low clouds.13 mph98%29.99 "Hg10 mi
4:59 PM50 °FLight rain. Overcast.13 mph100%29.95 "Hg10 mi
3:58 PM50 °FLight rain. More clouds than sun.14 mph98%29.98 "Hg10 mi
3:00 PM50 °FLight rain. More clouds than sun.9 mph100%29.95 "Hg10 mi
2:58 PM50 °FLight rain. Mostly cloudy.12 mph97%29.97 "Hg10 mi
1:58 PM50 °FLight rain. More clouds than sun.9 mph98%29.98 "Hg10 mi
12:58 PM50 °FMostly cloudy.8 mph98%29.99 "Hg8 mi
11:58 AM50 °FLight rain. Fog.13 mph98%30.02 "Hg6 mi
11:01 AM50 °FLight rain. Mostly cloudy.16 mph94%30.02 "Hg2 mi
10:58 AM50 °FRain. More clouds than sun.17 mph98%30.05 "Hg2 mi
9:58 AM50 °FMore clouds than sun.14 mph98%30.08 "Hg9 mi
8:58 AM50 °FHeavy rain. Fog.12 mph97%30.09 "Hg4 mi
7:58 AM48 °FRain. Fog.10 mph98%30.08 "Hg6 mi
7:00 AM48 °FRain. Mostly cloudy.12 mph94%30.07 "Hg7 mi
Weather by CustomWeather, © 2014

See weather overviewHow to use our weather pages